Terminal Aerodrome Forecast
Issued by NWS

Home | Current Version | Previous Version | Text Only | Print | Product List | Glossary On
Versions: 1 2 3 4 5 6 7 8 9 10 11 12 13 14 15 16 17 18 19
774
FTUS45 KTFX 110520
TAFCTB
TAF
KCTB 110520Z 1106/1206 33008KT P6SM FEW060 SCT150
     FM111000 34008KT P6SM BKN060
     FM111700 34010KT P6SM BKN020
     FM120000 35010KT 5SM -SN BR BKN020=

USA.gov is the U.S. government's official web portal to all federal, state and local government web resources and services.